STARLINK-36751, 67729

Orbit data source: Space-Track

STARLINK-36751, 67729 is a payload satellite owned by SpaceX/Seattle (US) in SSO that was launched on Wed, 11 Feb 2026 UTC via an FALCON 9 launch vehicle from the Air Force Western Test Range (AFWTR). Payload-class satellites include a variety of spacecraft equipped with specific instruments for various scientific and technological missions. These include communications satellites like Starlink; space stations such as the ISS; scientific satellites like the Hubble; Earth observation satellites from companies like Planet Labs, Umbra, and HawkEye 360; GPS; miniature CubeSats for education and research; and military/defense satellites.

Loading next visibility...
Identifier
67729, 2026-026J
Orbit
SSO
Country
Flag of USUS
Related business
Manufacturer
SpaceX/Seattle
Mission
Operational Commercial Communications
Bus & Motor
STARLINK V2MO, Unknown motor
Mass
575 kg wet, ~530 kg dry
Launch date (UTC)
2026-02-11 (3 months ago)
Launch vehicle
FALCON 9
Launch site
Air Force Western Test Range (AFWTR)
Object type
Payload
Rocket body
Debris
Shape & HBR
Box + 2 Pan, 17.7 m
Radar Cross Section
36.964 m²

Expand to show TLE details & history
Last TLE update: 8 hours ago

TLE from 8 hours ago
0 STARLINK-36751
1 67729U 26026J   26130.14510617  .00014087  00000-0  43789-3 0  9998
2 67729  97.2841 183.8739 0000869 106.7986 253.3352 15.33442373 13544
Epoch: 2026-05-10T03:28Z
TLE epoch observation values (Epoch: 2026-05-10T03:28:57.173Z)
Latitude
-0.00001°
Longitude
-96.31671°
Altitude
468.834 km
Speed
7.632 km/s
True Right ascension
12h 15m 29s
True Declination
0° 00' 00"
Sunlit
Object was in full shadow at epoch
Visualization orbit readout
Latitude
Unknown
Longitude
Unknown
Altitude
Unknown
Speed
Unknown
Apparent Right ascension
Unknown
Apparent Declination
Unknown
Sunlit
N/A
Visualization observer readout
Local Sidereal Time
19:48:35
Azimuth
Unknown
Elevation
Unknown
Doppler factor
Unknown
Orbital elements
Apogee altitude
463.088 km
Perigee altitude
461.899 km
Semi-major axis
6,840.631 km
Eccentricity
0.00009
Inclination
97.2841°
RAAN
183.8739°
Arg. of periapsis
106.7986°
True anomaly
253.32566°
Mean anomaly
253.3352°
Eccentric anomaly
253.33043°
Mean motion
3.83618 °/min
Orbital period
93.84 mins
BSTAR
0.00043789
Loading maneuver chart data...
Computing Atmospheric mass density...
Loading historical data...
Loading historical data...
Loading historical data...
Loading historical data...
Loading historical data...
Loading historical data...
Loading historical data...

Documentation

Showing up to 5 results
|